Location: Brodeslavy
(49.9527°N, 13.5567°E)
Time: 21:12:19
(UTC+00:00)

IRS-1C Rocket - Pass Details

Date: 17 June 2025
Orbit: 799 x 804 km, 98.7° (Epoch: 16 July)

Event Time Altitude Azimuth Distance (km) Brightness Sun altitude
Exits shadow 20:16:00 - 164° (SSE) 2,659 6.2 -7.5°
Reaches altitude 10° 20:16:43 10° 164° (SSE) 2,371 6.0 -7.5°
Maximum altitude 20:21:59 87° 254° (WSW) 809 4.2 -8.1°
Drops below altitude 10° 20:27:16 10° 344° (NNW) 2,386 7.9 -8.6°
Sets 20:29:37 0° 345° (NNW) 3,321 8.8 -8.8°
